User: anonymous   Login
Location: *
(51.0333°S, 178.4667°E)
Time: 12:14:29
(UTC+00:00)
Language:

Abrixas rocket - Orbit

View from above orbital plane
View from above orbital plane
View from above satellite
View from above satellite

Ground track
Ground track

The orbit data is extracted from the following two-line orbital elements,

1 25723U 99022C   20028.56970272 +.00010535 +00000-0 +89899-4 0  9992
2 25723 048.4120 056.0545 0007127 004.3631 355.7381 15.70014140155498
Epoch (UTC): 28 January 2020 13:40:22
Eccentricity: 0.0007127
inclination: 48.4120°
perigee height: 354 km
apogee height: 363 km
right ascension of ascending node: 56.0545°
argument of perigee: 4.3631°
revolutions per day: 15.70014140
mean anomaly at epoch: 355.7381°
orbit number at epoch: 15549

The dashed part of the orbit path shows where the satellite is in the earth's shadow,  

DLR